TimeEST,TemperatureF,Dew PointF,Humidity,Sea Level PressureIn,VisibilityMPH,Wind Direction,Wind SpeedMPH,Gust SpeedMPH,PrecipitationIn,Events,Conditions,WindDirDegrees,DateUTC
12:55 AM,65.8,59.7,81,30.14,10.0,SW,5.8,-,N/A,,Clear,220,2013-01-15 05:55:00
1:55 AM,65.1,59.5,82,30.13,10.0,SSW,3.5,-,N/A,,Clear,200,2013-01-15 06:55:00
2:55 AM,64.0,59.5,85,30.12,10.0,South,3.5,-,N/A,,Mostly Cloudy,180,2013-01-15 07:55:00
3:55 AM,63.7,59.7,87,30.13,10.0,North,8.1,-,N/A,,Scattered Clouds,350,2013-01-15 08:55:00
4:09 AM,64.4,59.0,83,30.12,10.0,Calm,Calm,-,N/A,,Mostly Cloudy,0,2013-01-15 09:09:00
4:41 AM,59.0,55.4,88,30.12,10.0,NNE,10.4,-,N/A,,Scattered Clouds,20,2013-01-15 09:41:00
4:55 AM,58.1,55.0,90,30.12,10.0,Variable,4.6,-,N/A,,Scattered Clouds,0,2013-01-15 09:55:00
5:11 AM,55.4,53.6,94,30.12,10.0,NNE,9.2,-,N/A,,Mostly Cloudy,20,2013-01-15 10:11:00
5:19 AM,55.4,53.6,94,30.13,10.0,North,8.1,-,N/A,,Mostly Cloudy,360,2013-01-15 10:19:00
5:55 AM,53.4,51.4,93,30.13,10.0,NNE,6.9,-,N/A,,Overcast,20,2013-01-15 10:55:00
6:00 AM,53.6,51.8,94,30.14,10.0,NNE,6.9,-,N/A,,Overcast,30,2013-01-15 11:00:00
6:36 AM,51.8,51.8,100,30.13,10.0,NE,4.6,-,N/A,,Overcast,40,2013-01-15 11:36:00
6:55 AM,52.2,51.1,96,30.13,10.0,ENE,6.9,-,N/A,,Overcast,60,2013-01-15 11:55:00
7:55 AM,52.3,51.8,98,30.15,10.0,ENE,9.2,-,N/A,,Overcast,60,2013-01-15 12:55:00
8:47 AM,50.0,50.0,100,30.19,10.0,NE,6.9,-,N/A,,Overcast,50,2013-01-15 13:47:00
8:55 AM,50.9,49.8,96,30.19,10.0,NE,4.6,-,N/A,,Overcast,50,2013-01-15 13:55:00
9:55 AM,51.4,48.9,91,30.20,10.0,NNE,5.8,-,N/A,,Overcast,30,2013-01-15 14:55:00
10:55 AM,52.0,48.7,89,30.20,10.0,NNE,5.8,-,N/A,,Overcast,20,2013-01-15 15:55:00
11:55 AM,51.8,48.6,89,30.19,10.0,NNE,5.8,-,N/A,,Overcast,30,2013-01-15 16:55:00
12:03 PM,51.8,48.2,88,30.18,10.0,NNE,6.9,-,N/A,,Overcast,20,2013-01-15 17:03:00
12:25 PM,51.8,48.2,88,30.16,10.0,NNE,8.1,-,N/A,,Overcast,30,2013-01-15 17:25:00
12:30 PM,51.8,48.2,88,30.16,10.0,NNE,6.9,-,N/A,,Overcast,30,2013-01-15 17:30:00
12:35 PM,51.8,48.2,88,30.16,10.0,NNE,5.8,-,N/A,,Overcast,30,2013-01-15 17:35:00
12:55 PM,52.3,48.9,88,30.16,10.0,NE,6.9,-,N/A,,Overcast,40,2013-01-15 17:55:00
1:01 PM,51.8,48.2,88,30.16,10.0,NE,5.8,-,N/A,,Overcast,40,2013-01-15 18:01:00
1:34 PM,51.8,48.2,88,30.15,10.0,NNE,6.9,-,N/A,,Overcast,30,2013-01-15 18:34:00
1:55 PM,51.6,48.6,89,30.14,10.0,NNE,6.9,-,N/A,,Overcast,30,2013-01-15 18:55:00
2:03 PM,51.8,48.2,88,30.14,10.0,NE,10.4,-,N/A,,Overcast,50,2013-01-15 19:03:00
2:12 PM,51.8,48.2,88,30.14,9.0,ENE,6.9,-,N/A,,Overcast,60,2013-01-15 19:12:00
2:19 PM,51.8,50.0,94,30.14,9.0,NNE,5.8,-,N/A,,Overcast,30,2013-01-15 19:19:00
2:23 PM,51.8,48.2,88,30.14,10.0,NNE,5.8,-,N/A,,Overcast,20,2013-01-15 19:23:00
2:41 PM,51.8,50.0,94,30.14,10.0,NNE,6.9,-,N/A,,Overcast,20,2013-01-15 19:41:00
2:55 PM,51.1,49.1,93,30.14,10.0,NNE,4.6,-,N/A,,Overcast,20,2013-01-15 19:55:00
2:59 PM,51.8,50.0,94,30.14,10.0,NE,6.9,-,N/A,,Overcast,50,2013-01-15 19:59:00
3:45 PM,51.8,48.2,88,30.15,10.0,ENE,9.2,-,N/A,,Overcast,60,2013-01-15 20:45:00
3:55 PM,51.1,49.1,93,30.15,10.0,ENE,10.4,-,N/A,,Overcast,60,2013-01-15 20:55:00
4:05 PM,50.0,48.2,94,30.14,10.0,ENE,10.4,-,N/A,,Overcast,70,2013-01-15 21:05:00
4:14 PM,50.0,50.0,100,30.14,10.0,NNE,6.9,-,N/A,,Overcast,30,2013-01-15 21:14:00
4:33 PM,50.0,50.0,100,30.14,10.0,NNE,6.9,-,N/A,,Overcast,30,2013-01-15 21:33:00
4:55 PM,50.2,49.1,96,30.14,8.0,NE,9.2,-,N/A,,Overcast,40,2013-01-15 21:55:00
5:19 PM,50.0,48.2,94,30.14,2.5,NE,8.1,-,N/A,,Overcast,40,2013-01-15 22:19:00
5:36 PM,50.0,48.2,94,30.14,3.0,NE,6.9,-,N/A,,Overcast,50,2013-01-15 22:36:00
5:55 PM,49.1,48.7,99,30.15,3.0,ENE,6.9,-,N/A,,Overcast,60,2013-01-15 22:55:00
6:05 PM,48.2,48.2,100,30.14,2.5,ENE,9.2,-,N/A,,Overcast,60,2013-01-15 23:05:00
6:11 PM,48.2,48.2,100,30.15,2.0,ENE,9.2,-,N/A,,Overcast,60,2013-01-15 23:11:00
6:42 PM,48.2,48.2,100,30.15,1.8,ENE,8.1,-,N/A,,Overcast,70,2013-01-15 23:42:00
6:55 PM,48.6,48.4,99,30.15,1.5,ENE,6.9,-,N/A,,Overcast,70,2013-01-15 23:55:00
7:03 PM,48.2,48.2,100,30.15,1.2,ENE,8.1,-,N/A,,Overcast,70,2013-01-16 00:03:00
7:06 PM,48.2,48.2,100,30.15,1.2,NE,8.1,-,N/A,,Overcast,50,2013-01-16 00:06:00
7:13 PM,48.2,48.2,100,30.15,1.0,NE,8.1,-,N/A,,Overcast,40,2013-01-16 00:13:00
7:18 PM,48.2,48.2,100,30.15,1.0,ENE,6.9,-,N/A,,Mist,60,2013-01-16 00:18:00
7:47 PM,48.2,48.2,100,30.14,1.0,East,6.9,-,N/A,,Overcast,80,2013-01-16 00:47:00
7:55 PM,48.7,48.6,99,30.14,0.8,ENE,6.9,-,N/A,,Overcast,70,2013-01-16 00:55:00
7:59 PM,48.2,48.2,100,30.14,0.8,ENE,5.8,-,N/A,,Mist,70,2013-01-16 00:59:00
8:03 PM,48.2,48.2,100,30.13,0.8,ENE,5.8,-,N/A,,Mist,60,2013-01-16 01:03:00
8:27 PM,48.2,48.2,100,30.12,1.0,ENE,5.8,-,N/A,,Mist,70,2013-01-16 01:27:00
8:38 PM,48.2,48.2,100,30.12,1.0,ENE,6.9,-,N/A,,Mist,60,2013-01-16 01:38:00
8:55 PM,48.9,48.6,99,30.12,1.0,ENE,8.1,-,N/A,,Mist,70,2013-01-16 01:55:00
8:59 PM,48.2,48.2,100,30.11,1.0,East,4.6,-,N/A,,Overcast,80,2013-01-16 01:59:00
9:09 PM,48.2,48.2,100,30.11,1.0,ENE,5.8,-,N/A,,Mist,70,2013-01-16 02:09:00
9:19 PM,48.2,48.2,100,30.11,0.8,ENE,4.6,-,N/A,,Mist,70,2013-01-16 02:19:00
9:32 PM,50.0,48.2,94,30.10,1.0,ENE,6.9,-,N/A,,Mist,60,2013-01-16 02:32:00
9:55 PM,49.1,48.9,99,30.09,1.0,ENE,5.8,-,N/A,,Mist,60,2013-01-16 02:55:00
9:56 PM,50.0,48.2,94,30.09,1.0,ENE,4.6,-,N/A,,Overcast,70,2013-01-16 02:56:00
10:03 PM,50.0,48.2,94,30.08,1.0,East,4.6,-,N/A,,Mist,80,2013-01-16 03:03:00
10:15 PM,50.0,50.0,100,30.08,1.0,ENE,4.6,-,N/A,,Mist,70,2013-01-16 03:15:00
10:23 PM,50.0,50.0,100,30.09,1.0,Calm,Calm,-,N/A,,Mist,0,2013-01-16 03:23:00
10:31 PM,50.0,50.0,100,30.09,0.8,Calm,Calm,-,N/A,,Mist,0,2013-01-16 03:31:00
10:55 PM,49.6,49.5,99,30.09,0.8,Variable,3.5,-,N/A,,Mist,0,2013-01-16 03:55:00
11:01 PM,50.0,50.0,100,30.09,1.0,North,4.6,-,N/A,,Mist,350,2013-01-16 04:01:00
11:29 PM,50.0,50.0,100,30.08,1.2,NNE,3.5,-,N/A,,Overcast,30,2013-01-16 04:29:00
11:32 PM,50.0,50.0,100,30.08,1.2,Calm,Calm,-,N/A,,Overcast,0,2013-01-16 04:32:00
11:55 PM,49.6,49.5,99,30.06,1.2,NE,4.6,-,N/A,,Overcast,50,2013-01-16 04:55:00
11:58 PM,50.0,50.0,100,30.06,1.0,East,4.6,-,N/A,,Mist,80,2013-01-16 04:58:00